This is the latest recevied weather packets stored in our database for station/object MM9SQL. If no packets are shown the sender has not sent any weather packets the latest 10 day(s).
| Time | Temp. | Humidity | Pressure | Rain* | Wind** | Luminosity | Snow |
|---|---|---|---|---|---|---|---|
| 1777830007 | 10° C | 75% | 1013 hPa | 0 mm | - | - | - |
| 1777827616 | 9.44° C | 76% | 1013.2 hPa | 0 mm | - | - | - |
| 1777827303 | 9.44° C | 75% | 1013.2 hPa | 0 mm | - | - | - |
| 1777827003 | 9.44° C | 75% | 1013.2 hPa | 0 mm | - | - | - |
| 1777823121 | 9.44° C | 77% | 1013.4 hPa | 0 mm | - | - | - |
| 1777821907 | 8.89° C | 75% | 1013.7 hPa | 0 mm | - | - | - |
| 1777821604 | 8.89° C | 76% | 1013.7 hPa | 0 mm | - | - | - |
| 1777820703 | 8.89° C | 76% | 1013.7 hPa | 0 mm | - | - | - |
| 1777817104 | 9.44° C | 74% | 1013.7 hPa | 0 mm | - | - | - |
| 1777815910 | 10° C | 73% | 1013.8 hPa | 0 mm | - | - | - |
| 1777814408 | 10° C | 73% | 1013.9 hPa | 0 mm | - | - | - |
| 1777813204 | 11.11° C | 71% | 1013.9 hPa | 0 mm | - | - | - |
| 1777812904 | 11.11° C | 72% | 1014 hPa | 0 mm | - | - | - |
| 1777811705 | 11.67° C | 74% | 1013.9 hPa | 0 mm | - | - | - |
| 1777810804 | 11.11° C | 73% | 1014 hPa | 0 mm | - | - | - |
| 1777810514 | 11.11° C | 73% | 1013.9 hPa | 0 mm | - | - | - |
| 1777810206 | 11.11° C | 74% | 1014 hPa | 0 mm | - | - | - |
| 1777809624 | 11.11° C | 75% | 1014.1 hPa | 0 mm | - | - | - |
| 1777806307 | 10.56° C | 76% | 1014.6 hPa | 0 mm | - | - | - |
| 1777806016 | 10° C | 79% | 1014.5 hPa | 0 mm | - | - | - |
| 1777801806 | 8.89° C | 80% | 1014.7 hPa | 0 mm | - | - | - |
| 1777801208 | 8.33° C | 78% | 1014.8 hPa | 0 mm | - | - | - |
| 1777799107 | 8.33° C | 79% | 1015 hPa | 0 mm | - | - | - |
| 1777797307 | 8.33° C | 82% | 1015.2 hPa | 0 mm | - | - | - |
| 1777794603 | 7.78° C | 83% | 1015.1 hPa | 0 mm | - | - | - |
* Rain latest hour (hover to see other rain measurements)
** Current wind speed in m/s (hover to see current wind gust speed)